Weather in Bolshaya Rechka

Russia / Irkutsk Oblast     51°57′03″N   104°44′19″E
temp.,
°C
wind,
m/s
gust,
m/s
humid.,
%
clouds,
%
prec.,
mm/h
press.,
hPa
HPBL,
m
16 september, thu
thu1623:00+6ese11825 0.0 101810
02:00+6se218484 0.0 101615
05:00+6sse118982 0.0 101511
08:00+7nw23825 0.0 1017118
11:00+14nnw22545 0.0 1014536
14:00+18wnw114220 0.0 10131071
17:00+17sw115065 0.0 1012518
20:00+10ne118076 0.0 101411
17 september, fri
fri1723:00+8ne118764 0.0 101610
02:00+7ne118798 0.0 101610
05:00+7ne118886 0.0 101510
08:00+9ese01805 0.0 101649
11:00+15s23575 0.0 1014875
14:00+18sse3346100 0.0 10121385
17:00+16sse2355100 0.0 1012600
20:00+8s018885 0.0 101411
18 september, sat
sat1823:00+6sse119493 0.0 101511
02:00+5e0194100 0.0 101511
05:00+4ese119382 0.0 101411
08:00+6se11845 0.0 101489
11:00+15sse23560 0.0 1011599
14:00+18s33490 0.0 1009817
17:00+16ssw33585 0.0 1009330
20:00+8sse118955 0.0 101117
19 september, sun
sun1923:00+7se018893 0.0 101211
02:00+6se118848 0.0 101211
05:00+6e119134 0.0 101211
08:00+8nnw1285100 0.0 101470
11:00+14sw2269100 0.0 1013657
14:00+17ssw21596 0.0 1012798
17:00+15s32645 0.0 1011380
20:00+7sse11955 0.0 101319
20 september, mon
mon2023:00+7se119411 0.0 101214
02:00+7sse22935 0.0 101119
05:00+7sse22956 0.0 100925
08:00+10sse238842 0.0 100792
11:00+18sse475364 0.0 1003499
14:00+22sse48425 0.0 1000608
17:00+21s36466 0.0 999381
20:00+13wnw33715 0.0 100165